QPF
0.00 0.00 0.00 0.00 0.01 0.01 0.02 0.01 0.01 0.01 0.01 0.01 0.03 0.03 0.01 0.00 0.00 0.01 0.02 0.01 0.01 0.01 0.01 0.04 0.08 0.08 0.08 0.09 0.07 0.07 0.05 0.07 0.09 0.08 0.09 0.11 0.13 0.14 0.15 0.16 0.17 0.18 0.19 0.17 0.16 0.15 0.15 0.15 0.17
0.00 0.00 0.00 0.00 0.01 0.01 0.02 0.01 0.02 0.01 0.01 0.01 0.01 0.01 0.01 0.00 0.00 0.01 0.02 0.00 0.00 0.01 0.02 0.04 0.07 0.07 0.06 0.07 0.08 0.07 0.07 0.08 0.09 0.10 0.09 0.09 0.09 0.12 0.17 0.21 0.19 0.17 0.18 0.18 0.18 0.18 0.17 0.13 0.12
0.00 0.00 0.00 0.00 0.00 0.01 0.02 0.02 0.03 0.03 0.01 0.01 0.01 0.01 0.02 0.01 0.00 0.01 0.01 0.00 0.00 0.00 0.01 0.03 0.07 0.07 0.06 0.05 0.05 0.06 0.07 0.08 0.09 0.10 0.09 0.09 0.09 0.09 0.11 0.18 0.23 0.23 0.20 0.17 0.15 0.16 0.14 0.11 0.10
0.00 0.00 0.00 0.00 0.00 0.00 0.00 0.01 0.03 0.04 0.02 0.00 0.01 0.01 0.01 0.01 0.01 0.00 0.00 0.00 0.00 0.00 0.01 0.01 0.04 0.06 0.06 0.05 0.05 0.06 0.05 0.06 0.07 0.08 0.10 0.09 0.09 0.08 0.09 0.13 0.19 0.25 0.23 0.17 0.15 0.13 0.12 0.12 0.12
0.00 0.00 0.00 0.00 0.00 0.00 0.00 0.01 0.02 0.03 0.02 0.00 0.01 0.00 0.00 0.00 0.01 0.01 0.00 0.01 0.01 0.01 0.01 0.01 0.02 0.04 0.05 0.05 0.05 0.05 0.04 0.03 0.04 0.05 0.06 0.06 0.06 0.08 0.10 0.14 0.18 0.23 0.26 0.20 0.15 0.12 0.12 0.13 0.12
0.00 0.00 0.00 0.00 0.01 0.00 0.01 0.01 0.02 0.02 0.01 0.00 0.01 0.01 0.00 0.01 0.02 0.02 0.02 0.01 0.01 0.01 0.01 0.01 0.02 0.03 0.04 0.04 0.05 0.05 0.04 0.03 0.04 0.05 0.05 0.05 0.07 0.07 0.09 0.16 0.13 0.18 0.25 0.21 0.15 0.11 0.11 0.11 0.09
0.00 0.00 0.00 0.00 0.01 0.01 0.01 0.01 0.01 0.01 0.02 0.02 0.01 0.00 0.00 0.02 0.02 0.02 0.02 0.01 0.01 0.01 0.01 0.01 0.02 0.02 0.03 0.03 0.03 0.03 0.04 0.03 0.03 0.03 0.03 0.04 0.05 0.08 0.11 0.17 0.20 0.22 0.23 0.18 0.13 0.09 0.08 0.07 0.06
0.00 0.00 0.00 0.01 0.01 0.01 0.00 0.00 0.01 0.01 0.02 0.01 0.01 0.00 0.01 0.02 0.02 0.01 0.01 0.01 0.01 0.01 0.01 0.01 0.02 0.02 0.02 0.03 0.03 0.03 0.04 0.03 0.02 0.02 0.02 0.03 0.04 0.07 0.13 0.16 0.24 0.28 0.21 0.13 0.10 0.08 0.07 0.06 0.04
0.00 0.00 0.00 0.00 0.01 0.00 0.00 0.00 0.00 0.01 0.01 0.01 0.01 0.00 0.01 0.02 0.02 0.02 0.02 0.02 0.02 0.02 0.01 0.01 0.01 0.01 0.01 0.02 0.03 0.03 0.03 0.03 0.02 0.01 0.01 0.02 0.03 0.05 0.11 0.16 0.25 0.23 0.15 0.10 0.08 0.08 0.07 0.06 0.05
0.00 0.01 0.00 0.00 0.00 0.00 0.00 0.00 0.00 0.01 0.01 0.01 0.01 0.01 0.01 0.01 0.01 0.01 0.01 0.01 0.01 0.01 0.01 0.01 0.01 0.01 0.01 0.02 0.03 0.03 0.02 0.02 0.01 0.01 0.01 0.01 0.02 0.04 0.06 0.08 0.13 0.16 0.13 0.09 0.08 0.08 0.07 0.05 0.04
0.00 0.00 0.00 0.00 0.00 0.00 0.00 0.01 0.01 0.01 0.01 0.01 0.01 0.01 0.01 0.01 0.01 0.00 0.00 0.00 0.01 0.01 0.01 0.01 0.01 0.01 0.01 0.03 0.03 0.04 0.04 0.03 0.02 0.01 0.01 0.02 0.03 0.04 0.05 0.07 0.11 0.14 0.14 0.11 0.10 0.09 0.08 0.06 0.05
0.00 0.00 0.00 0.00 0.00 0.00 0.00 0.00 0.00 0.01 0.01 0.01 0.01 0.02 0.02 0.02 0.01 0.01 0.01 0.01 0.01 0.01 0.01 0.01 0.02 0.01 0.02 0.03 0.06 0.05 0.05 0.03 0.03 0.03 0.01 0.02 0.03 0.03 0.02 0.03 0.05 0.07 0.09 0.09 0.09 0.08 0.08 0.06 0.04
0.00 0.00 0.00 0.00 0.00 0.00 0.01 0.00 0.00 0.01 0.01 0.01 0.01 0.02 0.03 0.03 0.02 0.02 0.01 0.01 0.00 0.00 0.01 0.02 0.06 0.05 0.03 0.04 0.07 0.07 0.05 0.03 0.03 0.04 0.02 0.02 0.02 0.01 0.01 0.02 0.04 0.06 0.07 0.05 0.05 0.06 0.05 0.04 0.04
0.00 0.00 0.00 0.00 0.00 0.00 0.00 0.00 0.01 0.02 0.03 0.03 0.02 0.04 0.05 0.03 0.02 0.02 0.01 0.01 0.01 0.01 0.01 0.04 0.11 0.09 0.04 0.06 0.07 0.07 0.05 0.03 0.03 0.03 0.02 0.01 0.02 0.02 0.01 0.01 0.03 0.05 0.06 0.04 0.04 0.04 0.03 0.03 0.03
0.00 0.00 0.00 0.00 0.00 0.00 0.00 0.01 0.01 0.02 0.03 0.03 0.02 0.02 0.02 0.01 0.01 0.02 0.01 0.01 0.01 0.00 0.01 0.05 0.12 0.10 0.05 0.07 0.08 0.08 0.05 0.04 0.03 0.03 0.02 0.01 0.02 0.02 0.01 0.02 0.03 0.03 0.04 0.03 0.03 0.04 0.03 0.03 0.03
0.00 0.00 0.00 0.00 0.00 0.00 0.00 0.01 0.01 0.01 0.01 0.01 0.01 0.02 0.01 0.01 0.01 0.02 0.04 0.03 0.02 0.01 0.01 0.05 0.11 0.10 0.07 0.06 0.07 0.08 0.05 0.03 0.02 0.02 0.03 0.02 0.02 0.02 0.02 0.02 0.03 0.02 0.02 0.02 0.04 0.05 0.04 0.03 0.03
0.00 0.00 0.00 0.00 0.00 0.00 0.00 0.00 0.01 0.01 0.01 0.01 0.01 0.01 0.01 0.01 0.01 0.01 0.04 0.04 0.03 0.02 0.02 0.03 0.11 0.11 0.08 0.06 0.05 0.05 0.04 0.03 0.02 0.02 0.02 0.02 0.02 0.02 0.02 0.02 0.03 0.02 0.02 0.02 0.02 0.03 0.03 0.02 0.02
0.00 0.00 0.00 0.00 0.00 0.01 0.01 0.01 0.00 0.01 0.01 0.01 0.01 0.01 0.01 0.01 0.01 0.01 0.02 0.03 0.04 0.03 0.03 0.03 0.08 0.11 0.08 0.06 0.05 0.04 0.03 0.03 0.03 0.03 0.03 0.02 0.02 0.02 0.02 0.02 0.02 0.03 0.02 0.03 0.04 0.02 0.02 0.01 0.02
0.00 0.00 0.00 0.01 0.01 0.01 0.01 0.02 0.02 0.01 0.01 0.01 0.01 0.01 0.01 0.01 0.01 0.01 0.01 0.02 0.03 0.03 0.03 0.03 0.09 0.10 0.08 0.05 0.04 0.03 0.03 0.03 0.02 0.02 0.02 0.03 0.03 0.03 0.02 0.02 0.02 0.03 0.03 0.03 0.04 0.03 0.01 0.02 0.01
0.00 0.00 0.00 0.01 0.01 0.00 0.01 0.03 0.02 0.01 0.01 0.01 0.01 0.01 0.00 0.01 0.01 0.00 0.01 0.01 0.02 0.02 0.03 0.04 0.09 0.08 0.06 0.05 0.03 0.02 0.02 0.01 0.01 0.02 0.02 0.02 0.03 0.03 0.03 0.03 0.03 0.02 0.03 0.02 0.01 0.01 0.02 0.02 0.01
0.00 0.00 0.00 0.00 0.00 0.00 0.01 0.01 0.01 0.01 0.01 0.01 0.01 0.01 0.00 0.00 0.00 0.00 0.01 0.01 0.02 0.01 0.02 0.04 0.08 0.06 0.05 0.05 0.03 0.02 0.01 0.01 0.01 0.01 0.01 0.01 0.02 0.02 0.02 0.03 0.04 0.03 0.01 0.01 0.01 0.01 0.02 0.02 0.02
0.00 0.00 0.00 0.00 0.00 0.00 0.00 0.00 0.01 0.01 0.01 0.00 0.00 0.00 0.01 0.00 0.00 0.01 0.01 0.01 0.03 0.02 0.02 0.03 0.05 0.05 0.06 0.06 0.04 0.02 0.02 0.01 0.01 0.00 0.01 0.01 0.02 0.03 0.02 0.02 0.02 0.02 0.02 0.02 0.02 0.01 0.02 0.03 0.02
0.01 0.01 0.00 0.00 0.00 0.00 0.00 0.00 0.00 0.01 0.01 0.01 0.01 0.00 0.00 0.00 0.00 0.00 0.01 0.01 0.04 0.05 0.02 0.02 0.03 0.04 0.06 0.05 0.03 0.02 0.02 0.01 0.00 0.00 0.00 0.01 0.02 0.03 0.03 0.03 0.02 0.03 0.02 0.02 0.02 0.01 0.02 0.02 0.03
0.01 0.02 0.01 0.00 0.01 0.00 0.00 0.00 0.00 0.00 0.00 0.00 0.00 0.00 0.01 0.00 0.00 0.00 0.00 0.01 0.04 0.07 0.04 0.03 0.02 0.03 0.04 0.05 0.05 0.02 0.01 0.01 0.01 0.01 0.01 0.01 0.01 0.02 0.02 0.03 0.03 0.04 0.04 0.03 0.02 0.02 0.01 0.02 0.02
0.01 0.02 0.02 0.01 0.01 0.00 0.00 0.00 0.00 0.00 0.00 0.01 0.01 0.01 0.01 0.01 0.00 0.00 0.00 0.01 0.03 0.09 0.06 0.04 0.03 0.03 0.03 0.04 0.06 0.04 0.02 0.01 0.01 0.01 0.01 0.02 0.02 0.02 0.02 0.03 0.05 0.05 0.04 0.03 0.03 0.03 0.02 0.03 0.02
0.01 0.02 0.01 0.01 0.01 0.00 0.00 0.00 0.00 0.00 0.01 0.01 0.01 0.01 0.00 0.01 0.01 0.00 0.00 0.01 0.01 0.09 0.07 0.04 0.03 0.03 0.04 0.05 0.05 0.05 0.03 0.02 0.01 0.01 0.01 0.02 0.02 0.03 0.03 0.04 0.05 0.05 0.04 0.03 0.03 0.03 0.04 0.04 0.04
0.01 0.01 0.01 0.01 0.01 0.01 0.00 0.00 0.01 0.01 0.01 0.01 0.01 0.01 0.01 0.00 0.01 0.01 0.00 0.00 0.01 0.06 0.06 0.03 0.02 0.02 0.04 0.07 0.07 0.05 0.04 0.02 0.01 0.02 0.02 0.03 0.02 0.02 0.03 0.03 0.03 0.03 0.03 0.03 0.03 0.03 0.02 0.02 0.02
0.01 0.01 0.01 0.01 0.01 0.01 0.00 0.00 0.01 0.01 0.01 0.00 0.00 0.01 0.01 0.01 0.01 0.01 0.01 0.00 0.01 0.04 0.06 0.04 0.03 0.02 0.03 0.05 0.06 0.06 0.05 0.04 0.02 0.02 0.03 0.04 0.03 0.02 0.03 0.02 0.01 0.01 0.01 0.02 0.02 0.03 0.03 0.02 0.02
0.01 0.01 0.02 0.01 0.01 0.01 0.00 0.00 0.00 0.00 0.00 0.00 0.00 0.00 0.01 0.01 0.00 0.00 0.01 0.01 0.01 0.02 0.05 0.05 0.04 0.02 0.02 0.03 0.04 0.04 0.05 0.05 0.04 0.02 0.03 0.05 0.04 0.03 0.03 0.02 0.01 0.01 0.01 0.01 0.01 0.01 0.01 0.02 0.02
0.01 0.01 0.01 0.01 0.01 0.00 0.00 0.00 0.00 0.00 0.01 0.01 0.00 0.00 0.01 0.01 0.01 0.01 0.01 0.01 0.00 0.01 0.03 0.05 0.05 0.03 0.03 0.03 0.03 0.03 0.04 0.04 0.04 0.04 0.04 0.05 0.04 0.03 0.02 0.02 0.02 0.01 0.01 0.01 0.01 0.00 0.00 0.01 0.01
MSLP
1006.65 1007.10 1007.80 1008.70 1009.69 1010.66 1011.52 1012.18 1012.63 1012.86 1012.94 1012.94 1012.92 1012.93 1012.98 1013.07 1013.15 1013.17 1013.09 1012.92 1012.64 1012.32 1011.98 1011.68 1011.45 1011.29 1011.19 1011.12 1011.03 1010.90 1010.72 1010.50 1010.26 1010.05 1009.88 1009.77 1009.72 1009.71 1009.70 1009.66 1009.57 1009.43 1009.24 1009.02 1008.81 1008.62 1008.47 1008.34 1008.23
1006.96 1007.57 1008.42 1009.40 1010.41 1011.33 1012.09 1012.61 1012.89 1012.97 1012.92 1012.82 1012.76 1012.76 1012.84 1012.96 1013.09 1013.17 1013.15 1013.01 1012.78 1012.48 1012.18 1011.92 1011.72 1011.61 1011.54 1011.50 1011.44 1011.34 1011.19 1010.99 1010.78 1010.58 1010.42 1010.31 1010.24 1010.19 1010.14 1010.05 1009.92 1009.75 1009.55 1009.34 1009.16 1009.00 1008.88 1008.78 1008.68
1007.34 1008.09 1009.03 1010.05 1011.03 1011.87 1012.50 1012.87 1013.01 1012.96 1012.82 1012.67 1012.59 1012.61 1012.73 1012.91 1013.09 1013.21 1013.23 1013.13 1012.93 1012.68 1012.42 1012.19 1012.04 1011.96 1011.94 1011.93 1011.90 1011.83 1011.71 1011.55 1011.36 1011.18 1011.03 1010.91 1010.82 1010.73 1010.62 1010.48 1010.30 1010.10 1009.88 1009.68 1009.51 1009.38 1009.28 1009.20 1009.12
1007.75 1008.61 1009.60 1010.60 1011.52 1012.24 1012.73 1012.97 1012.98 1012.85 1012.66 1012.51 1012.45 1012.51 1012.69 1012.92 1013.14 1013.30 1013.35 1013.28 1013.12 1012.91 1012.69 1012.52 1012.41 1012.38 1012.39 1012.41 1012.41 1012.36 1012.27 1012.13 1011.97 1011.81 1011.67 1011.54 1011.43 1011.30 1011.15 1010.96 1010.73 1010.48 1010.25 1010.04 1009.88 1009.76 1009.68 1009.62 1009.53
1008.17 1009.08 1010.06 1011.01 1011.82 1012.43 1012.78 1012.90 1012.83 1012.66 1012.47 1012.35 1012.35 1012.47 1012.70 1012.98 1013.24 1013.42 1013.50 1013.46 1013.33 1013.16 1013.00 1012.89 1012.83 1012.84 1012.88 1012.92 1012.94 1012.90 1012.82 1012.70 1012.56 1012.42 1012.29 1012.17 1012.04 1011.89 1011.70 1011.46 1011.19 1010.91 1010.65 1010.43 1010.26 1010.14 1010.06 1009.99 1009.89
1008.54 1009.46 1010.40 1011.25 1011.94 1012.42 1012.66 1012.69 1012.58 1012.41 1012.26 1012.21 1012.28 1012.48 1012.77 1013.08 1013.36 1013.56 1013.65 1013.64 1013.55 1013.44 1013.34 1013.28 1013.28 1013.33 1013.39 1013.45 1013.46 1013.42 1013.34 1013.22 1013.09 1012.97 1012.86 1012.74 1012.61 1012.45 1012.24 1011.97 1011.67 1011.36 1011.07 1010.83 1010.64 1010.51 1010.40 1010.31 1010.18
1008.86 1009.74 1010.59 1011.32 1011.89 1012.24 1012.38 1012.36 1012.25 1012.11 1012.04 1012.07 1012.24 1012.51 1012.84 1013.18 1013.48 1013.68 1013.78 1013.80 1013.76 1013.70 1013.67 1013.68 1013.74 1013.82 1013.90 1013.95 1013.95 1013.90 1013.80 1013.67 1013.55 1013.44 1013.34 1013.24 1013.12 1012.96 1012.74 1012.47 1012.15 1011.82 1011.50 1011.23 1011.01 1010.84 1010.70 1010.55 1010.39
1009.12 1009.93 1010.66 1011.27 1011.70 1011.94 1012.02 1011.97 1011.88 1011.81 1011.82 1011.95 1012.19 1012.52 1012.90 1013.26 1013.55 1013.76 1013.87 1013.91 1013.92 1013.93 1013.97 1014.05 1014.17 1014.29 1014.38 1014.42 1014.40 1014.31 1014.19 1014.05 1013.92 1013.82 1013.74 1013.66 1013.56 1013.41 1013.21 1012.93 1012.60 1012.26 1011.92 1011.62 1011.36 1011.14 1010.94 1010.74 1010.52
1009.35 1010.05 1010.67 1011.14 1011.45 1011.60 1011.62 1011.57 1011.51 1011.51 1011.61 1011.82 1012.14 1012.52 1012.91 1013.27 1013.56 1013.76 1013.89 1013.97 1014.03 1014.11 1014.22 1014.38 1014.55 1014.70 1014.80 1014.83 1014.78 1014.67 1014.52 1014.37 1014.23 1014.14 1014.07 1014.02 1013.94 1013.82 1013.63 1013.37 1013.04 1012.69 1012.34 1012.01 1011.71 1011.43 1011.17 1010.90 1010.62
1009.56 1010.16 1010.66 1011.01 1011.21 1011.28 1011.26 1011.22 1011.20 1011.26 1011.42 1011.70 1012.06 1012.46 1012.87 1013.22 1013.50 1013.70 1013.84 1013.95 1014.07 1014.22 1014.41 1014.63 1014.85 1015.04 1015.15 1015.18 1015.11 1014.98 1014.81 1014.65 1014.52 1014.43 1014.38 1014.35 1014.30 1014.20 1014.03 1013.78 1013.48 1013.13 1012.77 1012.41 1012.07 1011.74 1011.42 1011.08 1010.72
1009.78 1010.29 1010.68 1010.92 1011.03 1011.04 1010.99 1010.94 1010.95 1011.05 1011.26 1011.57 1011.95 1012.36 1012.75 1013.09 1013.36 1013.56 1013.72 1013.88 1014.06 1014.27 1014.53 1014.81 1015.08 1015.30 1015.42 1015.45 1015.39 1015.25 1015.08 1014.92 1014.79 1014.72 1014.68 1014.67 1014.64 1014.57 1014.42 1014.20 1013.91 1013.58 1013.21 1012.85 1012.48 1012.11 1011.72 1011.32 1010.89
1010.03 1010.46 1010.76 1010.92 1010.95 1010.91 1010.83 1010.77 1010.78 1010.89 1011.11 1011.42 1011.79 1012.18 1012.55 1012.87 1013.14 1013.35 1013.54 1013.74 1013.98 1014.26 1014.57 1014.91 1015.22 1015.46 1015.61 1015.66 1015.61 1015.48 1015.33 1015.18 1015.07 1015.02 1015.00 1015.00 1014.99 1014.94 1014.81 1014.62 1014.35 1014.04 1013.69 1013.32 1012.94 1012.53 1012.11 1011.65 1011.16
1010.30 1010.67 1010.90 1010.99 1010.97 1010.88 1010.77 1010.68 1010.66 1010.75 1010.94 1011.21 1011.55 1011.91 1012.25 1012.56 1012.83 1013.07 1013.30 1013.55 1013.84 1014.17 1014.54 1014.91 1015.25 1015.53 1015.71 1015.78 1015.76 1015.67 1015.55 1015.44 1015.36 1015.32 1015.32 1015.34 1015.34 1015.30 1015.20 1015.02 1014.78 1014.50 1014.17 1013.82 1013.44 1013.03 1012.57 1012.08 1011.55
1010.58 1010.90 1011.08 1011.13 1011.06 1010.92 1010.76 1010.63 1010.56 1010.59 1010.71 1010.93 1011.21 1011.53 1011.85 1012.16 1012.45 1012.72 1013.00 1013.31 1013.65 1014.02 1014.42 1014.83 1015.20 1015.49 1015.71 1015.82 1015.84 1015.80 1015.74 1015.67 1015.62 1015.62 1015.63 1015.65 1015.66 1015.63 1015.54 1015.39 1015.18 1014.93 1014.64 1014.32 1013.96 1013.56 1013.10 1012.59 1012.04
1010.84 1011.13 1011.27 1011.28 1011.17 1010.99 1010.77 1010.57 1010.42 1010.36 1010.39 1010.53 1010.74 1011.02 1011.33 1011.65 1011.98 1012.31 1012.65 1013.01 1013.40 1013.81 1014.24 1014.67 1015.05 1015.38 1015.62 1015.78 1015.85 1015.88 1015.87 1015.85 1015.85 1015.86 1015.89 1015.92 1015.92 1015.89 1015.82 1015.69 1015.52 1015.31 1015.06 1014.78 1014.46 1014.08 1013.64 1013.14 1012.59
1011.05 1011.32 1011.44 1011.42 1011.27 1011.04 1010.75 1010.46 1010.20 1010.03 1009.96 1010.00 1010.15 1010.39 1010.70 1011.05 1011.43 1011.83 1012.24 1012.67 1013.11 1013.56 1014.01 1014.44 1014.84 1015.19 1015.46 1015.66 1015.80 1015.88 1015.93 1015.97 1016.00 1016.04 1016.08 1016.10 1016.11 1016.08 1016.01 1015.91 1015.77 1015.61 1015.41 1015.18 1014.90 1014.57 1014.16 1013.69 1013.16
1011.22 1011.47 1011.57 1011.52 1011.34 1011.04 1010.67 1010.28 1009.90 1009.61 1009.42 1009.37 1009.45 1009.66 1009.98 1010.37 1010.82 1011.30 1011.79 1012.28 1012.77 1013.26 1013.73 1014.17 1014.58 1014.94 1015.25 1015.49 1015.69 1015.83 1015.94 1016.02 1016.08 1016.14 1016.18 1016.20 1016.20 1016.17 1016.12 1016.04 1015.94 1015.82 1015.68 1015.50 1015.27 1014.99 1014.63 1014.20 1013.71
1011.35 1011.58 1011.66 1011.59 1011.37 1011.01 1010.55 1010.04 1009.54 1009.11 1008.81 1008.66 1008.68 1008.87 1009.20 1009.65 1010.17 1010.73 1011.30 1011.86 1012.40 1012.92 1013.40 1013.86 1014.28 1014.65 1014.99 1015.28 1015.52 1015.72 1015.87 1016.00 1016.09 1016.15 1016.20 1016.21 1016.21 1016.19 1016.15 1016.09 1016.03 1015.95 1015.86 1015.74 1015.57 1015.34 1015.03 1014.66 1014.22
1011.47 1011.68 1011.75 1011.65 1011.38 1010.96 1010.41 1009.79 1009.17 1008.61 1008.20 1007.96 1007.92 1008.09 1008.44 1008.93 1009.51 1010.14 1010.78 1011.40 1011.98 1012.52 1013.02 1013.49 1013.92 1014.32 1014.68 1015.01 1015.30 1015.55 1015.75 1015.90 1016.02 1016.09 1016.14 1016.15 1016.15 1016.14 1016.11 1016.09 1016.06 1016.03 1015.98 1015.90 1015.79 1015.61 1015.37 1015.05 1014.68
1011.60 1011.80 1011.85 1011.73 1011.42 1010.93 1010.30 1009.58 1008.84 1008.18 1007.66 1007.33 1007.24 1007.38 1007.74 1008.25 1008.88 1009.55 1010.24 1010.89 1011.50 1012.06 1012.57 1013.04 1013.49 1013.91 1014.30 1014.67 1015.01 1015.30 1015.54 1015.73 1015.86 1015.95 1016.00 1016.03 1016.03 1016.04 1016.04 1016.04 1016.05 1016.06 1016.05 1016.02 1015.95 1015.82 1015.63 1015.38 1015.08
1011.76 1011.95 1011.98 1011.84 1011.50 1010.96 1010.26 1009.46 1008.63 1007.87 1007.27 1006.87 1006.72 1006.83 1007.15 1007.67 1008.30 1008.98 1009.68 1010.33 1010.94 1011.49 1012.00 1012.48 1012.94 1013.38 1013.81 1014.23 1014.61 1014.94 1015.22 1015.44 1015.60 1015.72 1015.79 1015.83 1015.86 1015.89 1015.92 1015.96 1016.01 1016.05 1016.08 1016.08 1016.05 1015.97 1015.83 1015.64 1015.40
1011.96 1012.13 1012.15 1011.99 1011.63 1011.06 1010.32 1009.47 1008.58 1007.76 1007.08 1006.62 1006.41 1006.46 1006.74 1007.21 1007.80 1008.44 1009.09 1009.71 1010.28 1010.81 1011.30 1011.77 1012.24 1012.71 1013.18 1013.63 1014.06 1014.44 1014.77 1015.03 1015.22 1015.37 1015.47 1015.55 1015.62 1015.69 1015.76 1015.84 1015.92 1015.99 1016.05 1016.08 1016.07 1016.02 1015.93 1015.80 1015.63
1012.16 1012.31 1012.33 1012.17 1011.80 1011.23 1010.48 1009.62 1008.71 1007.85 1007.14 1006.62 1006.35 1006.33 1006.53 1006.90 1007.40 1007.95 1008.51 1009.04 1009.54 1010.01 1010.46 1010.92 1011.39 1011.87 1012.38 1012.87 1013.35 1013.78 1014.16 1014.46 1014.71 1014.90 1015.05 1015.18 1015.30 1015.42 1015.54 1015.66 1015.77 1015.87 1015.94 1015.98 1015.99 1015.97 1015.92 1015.84 1015.73
1012.33 1012.48 1012.50 1012.35 1012.00 1011.46 1010.74 1009.90 1009.01 1008.16 1007.42 1006.87 1006.54 1006.43 1006.52 1006.77 1007.12 1007.53 1007.95 1008.36 1008.75 1009.14 1009.53 1009.95 1010.42 1010.92 1011.45 1011.99 1012.51 1012.99 1013.41 1013.77 1014.07 1014.31 1014.52 1014.71 1014.89 1015.06 1015.23 1015.39 1015.53 1015.64 1015.73 1015.78 1015.80 1015.79 1015.77 1015.73 1015.68
1012.46 1012.59 1012.62 1012.50 1012.20 1011.71 1011.06 1010.28 1009.45 1008.64 1007.92 1007.35 1006.96 1006.76 1006.72 1006.82 1007.01 1007.24 1007.49 1007.75 1008.00 1008.29 1008.61 1008.98 1009.43 1009.93 1010.48 1011.05 1011.60 1012.13 1012.59 1013.00 1013.34 1013.64 1013.91 1014.16 1014.39 1014.62 1014.84 1015.03 1015.19 1015.32 1015.40 1015.45 1015.47 1015.47 1015.46 1015.46 1015.46
1012.51 1012.64 1012.69 1012.61 1012.37 1011.97 1011.42 1010.74 1010.00 1009.26 1008.59 1008.02 1007.59 1007.30 1007.14 1007.08 1007.08 1007.13 1007.20 1007.29 1007.40 1007.57 1007.81 1008.14 1008.55 1009.05 1009.60 1010.18 1010.76 1011.31 1011.80 1012.24 1012.62 1012.96 1013.27 1013.57 1013.85 1014.12 1014.38 1014.59 1014.77 1014.89 1014.97 1015.00 1015.01 1015.01 1015.01 1015.04 1015.07
1012.50 1012.63 1012.71 1012.68 1012.53 1012.23 1011.79 1011.25 1010.63 1009.99 1009.38 1008.83 1008.38 1008.02 1007.75 1007.54 1007.38 1007.25 1007.15 1007.09 1007.07 1007.13 1007.29 1007.56 1007.94 1008.42 1008.96 1009.54 1010.11 1010.65 1011.15 1011.59 1011.98 1012.34 1012.68 1013.00 1013.31 1013.61 1013.88 1014.11 1014.28 1014.40 1014.46 1014.47 1014.46 1014.45 1014.46 1014.49 1014.56
1012.46 1012.59 1012.70 1012.73 1012.67 1012.49 1012.18 1011.78 1011.29 1010.77 1010.24 1009.74 1009.29 1008.89 1008.53 1008.21 1007.92 1007.65 1007.41 1007.22 1007.10 1007.08 1007.17 1007.39 1007.73 1008.17 1008.68 1009.23 1009.77 1010.28 1010.74 1011.16 1011.53 1011.87 1012.20 1012.52 1012.83 1013.13 1013.40 1013.62 1013.78 1013.87 1013.91 1013.90 1013.87 1013.84 1013.84 1013.87 1013.95
1012.42 1012.57 1012.71 1012.81 1012.83 1012.76 1012.59 1012.31 1011.96 1011.56 1011.13 1010.70 1010.27 1009.86 1009.46 1009.07 1008.69 1008.33 1008.00 1007.73 1007.54 1007.46 1007.50 1007.68 1007.98 1008.38 1008.84 1009.32 1009.80 1010.24 1010.64 1010.99 1011.30 1011.59 1011.87 1012.15 1012.43 1012.70 1012.95 1013.15 1013.28 1013.35 1013.36 1013.32 1013.26 1013.21 1013.19 1013.23 1013.30
1012.43 1012.60 1012.78 1012.94 1013.04 1013.06 1013.00 1012.85 1012.62 1012.33 1012.00 1011.64 1011.26 1010.87 1010.47 1010.06 1009.64 1009.24 1008.87 1008.56 1008.34 1008.23 1008.25 1008.39 1008.65 1008.99 1009.38 1009.79 1010.17 1010.52 1010.81 1011.06 1011.27 1011.48 1011.68 1011.89 1012.12 1012.34 1012.54 1012.70 1012.80 1012.84 1012.82 1012.75 1012.67 1012.60 1012.56 1012.57 1012.64
Thickness
5794 5797 5798 5792 5780 5768 5755 5758 5766 5764 5766 5771 5773 5771 5766 5761 5756 5748 5761 5770 5770 5770 5769 5768 5767 5768 5769 5769 5770 5770 5770 5770 5771 5771 5772 5772 5771 5771 5771 5771 5770 5770 5769 5769 5769 5769 5769 5769 5769
5797 5797 5793 5785 5771 5754 5749 5760 5761 5764 5768 5772 5771 5770 5765 5760 5762 5762 5764 5766 5768 5769 5768 5766 5764 5765 5766 5766 5767 5767 5767 5767 5767 5768 5768 5768 5768 5768 5767 5768 5767 5767 5767 5767 5766 5766 5766 5766 5766
5795 5794 5784 5775 5763 5755 5750 5758 5761 5765 5769 5769 5765 5766 5762 5757 5761 5762 5765 5766 5767 5767 5765 5763 5762 5762 5763 5763 5763 5764 5764 5764 5764 5764 5764 5764 5764 5764 5764 5764 5764 5764 5764 5764 5763 5763 5763 5764 5763
5792 5787 5780 5767 5752 5755 5758 5761 5764 5761 5763 5767 5765 5759 5760 5761 5763 5764 5765 5766 5765 5764 5763 5760 5759 5759 5759 5759 5760 5760 5760 5760 5760 5760 5761 5761 5760 5760 5760 5761 5761 5761 5761 5760 5760 5760 5760 5760 5760
5789 5779 5764 5753 5750 5755 5762 5765 5765 5760 5759 5762 5763 5754 5752 5759 5764 5764 5763 5763 5762 5761 5760 5758 5755 5755 5755 5755 5756 5756 5756 5756 5756 5756 5756 5756 5756 5756 5756 5757 5757 5757 5757 5756 5757 5756 5756 5756 5756
5777 5773 5755 5746 5746 5753 5760 5764 5764 5761 5759 5760 5759 5753 5750 5758 5759 5759 5760 5760 5759 5758 5757 5755 5752 5752 5751 5751 5751 5751 5752 5752 5752 5752 5752 5752 5752 5752 5752 5753 5754 5754 5754 5753 5752 5752 5752 5751 5751
5770 5762 5751 5747 5744 5747 5754 5762 5760 5758 5755 5757 5760 5751 5749 5754 5756 5757 5757 5757 5755 5755 5754 5753 5752 5750 5748 5747 5747 5747 5747 5747 5747 5747 5747 5747 5748 5748 5748 5749 5751 5751 5751 5750 5749 5748 5747 5747 5747
5773 5763 5748 5747 5743 5744 5755 5758 5759 5757 5753 5760 5761 5751 5746 5751 5755 5755 5754 5753 5752 5752 5751 5750 5750 5749 5748 5746 5743 5743 5743 5743 5743 5743 5743 5743 5744 5744 5744 5745 5745 5746 5747 5746 5745 5744 5743 5743 5743
5772 5755 5743 5744 5744 5746 5754 5753 5755 5759 5756 5755 5756 5755 5754 5754 5752 5750 5748 5748 5747 5747 5748 5748 5747 5747 5745 5744 5741 5740 5739 5739 5740 5740 5739 5740 5742 5742 5741 5739 5739 5740 5741 5740 5739 5739 5739 5740 5739
5762 5746 5744 5751 5754 5751 5752 5752 5752 5752 5748 5747 5748 5749 5751 5749 5747 5745 5743 5743 5743 5743 5744 5745 5744 5744 5743 5741 5740 5739 5738 5737 5738 5738 5737 5738 5737 5736 5735 5733 5734 5734 5734 5734 5734 5735 5736 5738 5738
5756 5746 5748 5750 5754 5753 5749 5748 5752 5748 5741 5745 5744 5744 5744 5743 5743 5742 5741 5741 5740 5741 5741 5742 5741 5741 5740 5738 5737 5736 5735 5734 5734 5734 5734 5733 5733 5732 5732 5731 5731 5731 5731 5731 5731 5733 5734 5735 5734
5748 5746 5748 5748 5749 5748 5746 5746 5744 5743 5743 5750 5749 5746 5742 5740 5740 5740 5739 5739 5738 5738 5738 5739 5738 5738 5737 5735 5734 5733 5732 5731 5731 5730 5730 5730 5729 5728 5727 5727 5726 5727 5726 5726 5727 5728 5729 5730 5730
5742 5740 5743 5745 5744 5745 5744 5740 5740 5739 5744 5746 5745 5742 5739 5739 5738 5739 5739 5738 5737 5735 5735 5736 5735 5734 5733 5731 5730 5729 5728 5728 5727 5725 5725 5725 5725 5724 5724 5723 5721 5722 5721 5722 5722 5724 5724 5724 5724
5740 5738 5739 5740 5740 5740 5736 5736 5735 5735 5740 5739 5738 5736 5736 5736 5736 5736 5736 5735 5735 5734 5734 5733 5732 5731 5730 5729 5727 5725 5724 5723 5722 5721 5721 5720 5719 5719 5719 5718 5717 5717 5717 5717 5718 5719 5719 5719 5718
5741 5733 5732 5734 5736 5736 5735 5726 5729 5735 5735 5733 5733 5733 5733 5733 5733 5733 5734 5734 5734 5733 5732 5730 5729 5728 5727 5726 5723 5721 5720 5720 5718 5717 5717 5716 5715 5715 5714 5714 5713 5712 5712 5713 5713 5713 5713 5713 5712
5735 5728 5720 5726 5731 5731 5726 5716 5728 5732 5730 5728 5730 5730 5728 5729 5731 5733 5733 5732 5732 5731 5729 5727 5726 5725 5724 5722 5720 5719 5717 5715 5714 5713 5712 5712 5711 5711 5710 5709 5708 5708 5708 5708 5707 5708 5707 5707 5707
5725 5719 5716 5719 5727 5727 5723 5717 5725 5728 5726 5725 5726 5727 5727 5727 5729 5730 5731 5730 5729 5728 5726 5724 5722 5721 5720 5718 5716 5715 5713 5711 5710 5708 5707 5707 5706 5706 5706 5704 5704 5704 5703 5703 5703 5702 5702 5701 5701
5715 5717 5715 5714 5721 5721 5717 5717 5722 5725 5723 5723 5725 5725 5725 5726 5727 5729 5729 5728 5726 5725 5723 5721 5719 5717 5716 5714 5713 5711 5709 5708 5706 5704 5703 5702 5701 5701 5701 5700 5700 5699 5699 5698 5698 5696 5696 5696 5696
5721 5716 5712 5715 5719 5715 5714 5716 5720 5723 5722 5722 5724 5724 5725 5725 5728 5728 5726 5725 5723 5721 5720 5718 5715 5714 5712 5710 5709 5707 5705 5704 5702 5700 5699 5698 5697 5697 5697 5697 5696 5694 5694 5693 5693 5692 5690 5690 5692
5716 5711 5710 5712 5715 5711 5711 5713 5721 5721 5721 5723 5724 5723 5724 5724 5725 5724 5722 5721 5720 5718 5716 5715 5712 5711 5709 5707 5707 5704 5702 5701 5699 5696 5695 5694 5694 5693 5692 5692 5692 5690 5689 5688 5688 5687 5686 5686 5687
5711 5709 5707 5705 5707 5710 5706 5709 5716 5720 5721 5721 5722 5723 5724 5722 5722 5722 5720 5718 5716 5715 5713 5712 5710 5708 5706 5705 5703 5700 5698 5697 5695 5692 5691 5690 5690 5689 5688 5688 5688 5686 5686 5684 5683 5682 5681 5681 5683
5703 5711 5707 5702 5700 5700 5702 5697 5713 5718 5716 5717 5719 5720 5720 5720 5720 5719 5717 5715 5714 5712 5711 5710 5708 5706 5704 5702 5700 5697 5694 5692 5691 5690 5688 5687 5686 5685 5684 5684 5683 5682 5681 5680 5679 5679 5678 5677 5677
5705 5707 5705 5702 5699 5697 5701 5697 5710 5715 5712 5716 5718 5718 5718 5718 5717 5716 5715 5713 5712 5710 5708 5707 5705 5703 5702 5700 5697 5694 5692 5691 5689 5687 5685 5684 5683 5681 5680 5679 5679 5678 5677 5676 5675 5674 5674 5675 5674
5703 5700 5698 5698 5695 5686 5697 5694 5702 5714 5714 5716 5717 5717 5716 5716 5715 5714 5713 5711 5709 5707 5704 5702 5701 5699 5698 5696 5694 5692 5689 5687 5685 5683 5681 5681 5679 5678 5676 5675 5675 5674 5674 5672 5671 5670 5670 5670 5670
5699 5691 5682 5679 5679 5685 5695 5691 5703 5716 5717 5715 5715 5715 5715 5714 5712 5710 5707 5706 5704 5702 5701 5699 5698 5696 5695 5693 5691 5689 5687 5685 5682 5681 5679 5678 5677 5675 5673 5672 5671 5671 5670 5669 5667 5667 5666 5666 5665
5695 5691 5677 5669 5674 5684 5687 5689 5708 5714 5714 5714 5713 5713 5712 5711 5710 5707 5705 5703 5701 5699 5698 5697 5695 5694 5692 5691 5689 5687 5685 5682 5680 5678 5677 5676 5674 5673 5671 5669 5668 5667 5666 5664 5664 5663 5662 5662 5662
5688 5687 5690 5681 5679 5676 5687 5696 5706 5709 5708 5708 5708 5707 5707 5707 5706 5704 5702 5701 5699 5697 5696 5695 5693 5691 5689 5688 5686 5684 5682 5679 5677 5675 5674 5672 5671 5669 5667 5666 5664 5663 5662 5661 5660 5658 5658 5657 5657
5690 5687 5679 5673 5664 5668 5679 5687 5695 5699 5701 5703 5703 5703 5704 5704 5702 5700 5699 5697 5696 5694 5692 5692 5690 5688 5686 5684 5682 5680 5678 5676 5674 5672 5670 5669 5667 5665 5663 5662 5661 5659 5658 5656 5655 5654 5652 5652 5651
5677 5676 5676 5674 5672 5667 5669 5684 5701 5699 5699 5698 5700 5700 5700 5699 5698 5697 5694 5693 5692 5690 5688 5687 5686 5684 5682 5680 5678 5676 5674 5671 5669 5668 5666 5664 5663 5661 5659 5658 5656 5655 5653 5652 5650 5649 5647 5647 5646
5679 5678 5675 5666 5666 5668 5667 5680 5699 5695 5695 5695 5696 5696 5696 5695 5693 5692 5690 5688 5687 5685 5683 5682 5681 5678 5676 5674 5673 5671 5669 5667 5665 5663 5661 5660 5658 5657 5655 5654 5652 5650 5649 5647 5645 5643 5642 5642 5641